"Pseudo-MPEC" for P11DBYf

Created 2023 Apr 7 18:22:05 UT using Find_Orb

Click here for an explanation of pseudo-MPECs

 
 Astrometry: 
     P11DBYf* C2023 03 18Q\453/Astrometryhredacted;X!knNvR$Md8pk1dkAVXjF-lwg(F51
     P11DBYf  C2023 03 18e#;NEsOkAXgs\:]NdN_(t[8RK8:q5'y^nclick(^g2O.jp[dhereF51
     P11DBYf  C2023 03 18rT(Fm0tNMy:gpOHforI)a=1E*CNlgDMexplanationG.E!6Fo@wGF51

Station data:
(F51) Pan-STARRS 1, Haleakala  (N20.707234 W156.255910)  US/Hawaii.
   Observers J. Bulger, T. Lowe, A. Schultz, M. Willman. Measurers K.
   Chambers, S. Chastel, T. de Boer, L. Denneau, J. Fairlamb, H. Flewelling,
   M. Huber, C.-C. Lin, E. Magnier, Y. Ramanjooloo, R. Wainscoat, R. Weryk.
   1.8-m Ritchey-Chrétien + CCD.

Orbital elements:  P11DBYf
   Perihelion 2024 Jan 4.29251 +/- 320 TT =  7:01:13 (JD 2460313.79251)
Epoch 2023 Mar 18.0 TT = JDT 2460021.5   Earth MOID: 0.6906      AutoNEOCP
M 244.37263889 +/- 80               (J2000 ecliptic)
n   0.39558782 +/- 0.236            Peri.  175.29660 +/- 70
a   1.83783887 +/- 0.732            Node   122.47445 +/- 42
e   0.0716350 +/- 0.259             Incl.   20.82870 +/- 32
P   2.49/910.02d           H 19.92  G  0.15   U 11.8  SR
q 1.70618515 +/- 0.919    Q 1.96949260 +/- 33.9
From 3 observations 2023 Mar. 18 (48.8 min); mean residual 0".04
Residuals in arcseconds: 
230318 F51  .05-  .00     230318 F51  .08+  .00     230318 F51  .03-  .00     

Ephemerides (geocentric):
Date (UTC) HH   RA             Dec           delta  r     elong  mag " sig PA
---- --------  ------------   ------------  ------ ------ -----  --- --------
2023 04 07 18  11 56 43.329   +37 21 57.31  1.0541 1.8855 133.1 22.5  30d 153
2023 04 07 19  11 56 41.129   +37 22 04.28  1.0543 1.8855 133.1 22.5  30d 153
2023 04 07 20  11 56 38.931   +37 22 11.19  1.0545 1.8855 133.1 22.5  30d 153
2023 04 07 21  11 56 36.736   +37 22 18.04  1.0547 1.8854 133.0 22.5  30d 153
2023 04 07 22  11 56 34.544   +37 22 24.83  1.0549 1.8854 133.0 22.5  30d 153
2023 04 07 23  11 56 32.355   +37 22 31.55  1.0551 1.8854 133.0 22.5  30d 153
2023 04 08 00  11 56 30.168   +37 22 38.21  1.0553 1.8853 132.9 22.6  30d 153
2023 04 08 01  11 56 27.984   +37 22 44.81  1.0555 1.8853 132.9 22.6  30d 153
2023 04 08 02  11 56 25.803   +37 22 51.35  1.0557 1.8853 132.9 22.6  30d 153
2023 04 08 03  11 56 23.625   +37 22 57.83  1.0559 1.8852 132.8 22.6  30d 153
2023 04 08 04  11 56 21.449   +37 23 04.24  1.0561 1.8852 132.8 22.6  30d 153
2023 04 08 05  11 56 19.277   +37 23 10.59  1.0563 1.8852 132.8 22.6  30d 153
2023 04 08 06  11 56 17.107   +37 23 16.89  1.0565 1.8851 132.7 22.6  30d 153
2023 04 08 07  11 56 14.939   +37 23 23.12  1.0566 1.8851 132.7 22.6  30d 153
2023 04 08 08  11 56 12.775   +37 23 29.28  1.0568 1.8851 132.7 22.6  30d 153
2023 04 08 09  11 56 10.613   +37 23 35.39  1.0570 1.8850 132.6 22.6  30d 153
2023 04 08 10  11 56 08.455   +37 23 41.44  1.0572 1.8850 132.6 22.6  30d 153
2023 04 08 11  11 56 06.299   +37 23 47.42  1.0574 1.8850 132.6 22.6  30d 153
2023 04 08 12  11 56 04.146   +37 23 53.34  1.0576 1.8849 132.6 22.6  30d 153
2023 04 08 13  11 56 01.995   +37 23 59.20  1.0578 1.8849 132.5 22.6  30d 153
2023 04 08 14  11 55 59.848   +37 24 05.00  1.0580 1.8849 132.5 22.6  30d 153
2023 04 08 15  11 55 57.703   +37 24 10.74  1.0582 1.8848 132.5 22.6  30d 153
2023 04 08 16  11 55 55.561   +37 24 16.42  1.0584 1.8848 132.4 22.6  30d 153
2023 04 08 17  11 55 53.423   +37 24 22.03  1.0586 1.8848 132.4 22.6  30d 153
2023 04 08 18  11 55 51.286   +37 24 27.59  1.0588 1.8847 132.4 22.6  30d 153
2023 04 08 19  11 55 49.153   +37 24 33.08  1.0590 1.8847 132.3 22.6  30d 153
2023 04 08 20  11 55 47.023   +37 24 38.51  1.0592 1.8847 132.3 22.6  30d 153
2023 04 08 21  11 55 44.895   +37 24 43.89  1.0594 1.8846 132.3 22.6  30d 153
2023 04 08 22  11 55 42.771   +37 24 49.20  1.0596 1.8846 132.2 22.6  30d 153
2023 04 08 23  11 55 40.649   +37 24 54.44  1.0598 1.8845 132.2 22.6  30d 153
2023 04 09 00  11 55 38.530   +37 24 59.63  1.0600 1.8845 132.2 22.6  30d 153
2023 04 09 01  11 55 36.414   +37 25 04.76  1.0602 1.8845 132.1 22.6  30d 153
2023 04 09 02  11 55 34.301   +37 25 09.82  1.0604 1.8844 132.1 22.6  30d 153
2023 04 09 03  11 55 32.191   +37 25 14.83  1.0606 1.8844 132.1 22.6  30d 153
2023 04 09 04  11 55 30.084   +37 25 19.77  1.0608 1.8844 132.0 22.6  30d 153
2023 04 09 05  11 55 27.980   +37 25 24.66  1.0610 1.8843 132.0 22.6  30d 153
2023 04 09 06  11 55 25.878   +37 25 29.48  1.0612 1.8843 132.0 22.6  30d 153
2023 04 09 07  11 55 23.780   +37 25 34.24  1.0614 1.8843 132.0 22.6  30d 153
2023 04 09 08  11 55 21.684   +37 25 38.94  1.0616 1.8842 131.9 22.6  30d 153
2023 04 09 09  11 55 19.592   +37 25 43.58  1.0618 1.8842 131.9 22.6  30d 153
2023 04 09 10  11 55 17.502   +37 25 48.16  1.0620 1.8842 131.9 22.6  30d 153
2023 04 09 11  11 55 15.415   +37 25 52.68  1.0622 1.8841 131.8 22.6  30d 153
2023 04 09 12  11 55 13.331   +37 25 57.14  1.0625 1.8841 131.8 22.6  30d 153
2023 04 09 13  11 55 11.251   +37 26 01.53  1.0627 1.8841 131.8 22.6  30d 153
2023 04 09 14  11 55 09.173   +37 26 05.87  1.0629 1.8840 131.7 22.6  30d 153
2023 04 09 15  11 55 07.098   +37 26 10.15  1.0631 1.8840 131.7 22.6  30d 153
2023 04 09 16  11 55 05.026   +37 26 14.36  1.0633 1.8840 131.7 22.6  30d 153
2023 04 09 17  11 55 02.957   +37 26 18.52  1.0635 1.8839 131.6 22.6  30d 153